www.pogodaiklimat.ru

Погода и климат >> Архив погоды >> Австралия >> Paraburdoo Aero


ПОГОДА в Paraburdoo Aero

  • Прогноз погоды в Paraburdoo Aero
  • Монитор погоды в Paraburdoo Aero
  • Климат города

АРХИВ ПОГОДЫ в Paraburdoo Aero

Время (UTC), дата Ветер
(напр.,м/с)
 
Видим.   Явления Облачность Т
(С)
Тd
(С)
f
(%)
Тe
(С)
Тes
(С)
Комфортность P
(гПа)
Po
(гПа)
Тmin
(С)
Tmax
(С)
R
(мм)
R24
(мм)
S
(см)
07 10.12 СЗ 8 н/о н/о +43.8 +2.3 8 +40 +40 очень
жарко
1001.6 955.6
09 10.12 ЮЗ 8 н/о н/о +42.7 +3.1 9 +39 +39 очень
жарко
1001.4 955.4
10 10.12 З 8 н/о н/о +41.6 +2.3 9 +38 +38 очень
жарко
1001.8 955.8
12 10.12 ЮЗ 7 н/о н/о +38.4 +1.4 10 +35 +35 очень
жарко
1003.4 957.3
13 10.12 ЮЗ 7 н/о н/о +37.1 -1.0 9 +33 +33 жарко 1004.4 958.3 +45.0
15 10.12 ЮЗ 3 н/о н/о +34.3 -3.1 9 +30 +30 жарко 1005.6 959.4
16 10.12 ЮЗ 3 н/о н/о +32.4 -1.8 11 +29 +29 жарко 1005.6 959.4
18 10.12 З 3 н/о н/о +29.1 +0.7 16 +27 +27 жарко 1004.9 958.8
19 10.12 З 2 н/о н/о +29.2 +0.8 16 +27 +27 жарко 1005.5 959.3
21 10.12 СЗ 2 н/о н/о +25.9 +1.9 21 +24 +24 комфорт 1006.1 959.9
22 10.12 СЗ 1 н/о 1/0
[]
+25.9 +2.6 22 +25 +25 комфорт 1006.9 960.7
00 11.12 Ю 3 н/о н/о +31.5 +6.5 21 +30 +30 жарко 1007.8 961.5
01 11.12 ЮЗ 2 н/о н/о +33.7 +5.3 17 +31 +31 жарко 1007.5 961.3 +25.6
03 11.12 ЮЗ 4 н/о н/о +37.7 +0.9 10 +34 +34 очень
жарко
1006.5 960.3
04 11.12 ЮЗ 5 н/о н/о +39.3 +0.6 9 +36 +36 очень
жарко
1005.7 959.5
06 11.12 ЮЗ 8 н/о н/о +40.9 -1.6 7 +37 +37 очень
жарко
1004.4 958.3
07 11.12 ЮЗ 7 н/о н/о +41.3 +0.5 8 +38 +38 очень
жарко
1003.8 957.7
09 11.12 ЮЗ 7 н/о н/о +41.4 -1.3 7 +37 +37 очень
жарко
1003.6 957.5
10 11.12 ЮЗ 8 н/о н/о +39.5 -2.6 7 +35 +35 очень
жарко
1003.9 957.8
12 11.12 ЮЗ 7 н/о н/о +36.4 -3.1 8 +32 +32 жарко 1005.3 959.2
13 11.12 ЮЗ 6 н/о н/о +35.1 -4.1 8 +31 +31 жарко 1006.0 959.8 +42.8
15 11.12 ЮЗ 5 н/о н/о +32.8 -5.7 8 +29 +29 жарко 1006.8 960.6
16 11.12 ЮЗ 5 н/о н/о +31.7 -5.0 9 +28 +28 жарко 1006.6 960.4
18 11.12 Ю 3 н/о н/о +29.2 -5.5 10 +26 +26 жарко 1006.1 959.9
19 11.12 штиль 0 н/о н/о +27.3 -4.6 12 +24 +24 комфорт 1006.2 960.0
21 11.12 СЗ 2 н/о н/о +21.8 -5.1 16 +21 +21 комфорт 1007.2 961.0
22 11.12 ЮЗ 3 н/о н/о +25.0 -3.4 15 +23 +23 комфорт 1008.2 961.9
00 12.12 Ю 5 н/о н/о +30.2 +0.7 15 +27 +27 жарко 1008.2 961.9
01 12.12 ЮВ 4 н/о н/о +31.7 +1.0 14 +29 +29 жарко 1008.0 961.7 +21.1
03 12.12 ЮВ 4 н/о н/о +34.7 -1.4 10 +31 +31 жарко 1006.9 960.7
04 12.12 Ю 5 н/о н/о +35.7 -2.0 9 +32 +32 жарко 1006.0 959.8
06 12.12 Ю 4 н/о н/о +38.5 -3.4 7 +34 +34 очень
жарко
1004.5 958.4
07 12.12 ЮВ 3 н/о н/о +39.3 -4.8 6 +35 +35 очень
жарко
1003.9 957.8
09 12.12 ЮЗ 6 н/о н/о +38.9 -7.5 5 +34 +34 очень
жарко
1003.4 957.3
10 12.12 Ю 4 н/о н/о +38.3 -5.5 6 +34 +34 очень
жарко
1003.6 957.5
12 12.12 Ю 3 н/о н/о +33.7 -8.8 6 +29 +29 жарко 1004.7 958.6
13 12.12 Ю 4 н/о н/о +32.3 -6.1 8 +28 +28 жарко 1005.0 958.9 +40.1
15 12.12 Ю 5 н/о н/о +32.9 -7.4 7 +29 +29 жарко 1005.3 959.2
16 12.12 Ю 5 н/о н/о +32.0 -8.1 7 +28 +28 жарко 1004.8 958.7
18 12.12 СВ 2 н/о н/о +27.9 -9.4 8 +24 +24 комфорт 1004.4 958.3
19 12.12 С 2 н/о н/о +25.3 -8.5 10 +22 +22 комфорт 1004.4 958.3
21 12.12 СВ 3 н/о н/о +22.5 -6.3 14 +21 +21 комфорт 1004.8 958.7
22 12.12 СВ 1 н/о н/о +25.2 -6.2 12 +23 +23 комфорт 1005.3 959.2
00 13.12 В 5 н/о н/о +33.8 +4.5 16 +31 +31 жарко 1006.2 960.0
01 13.12 В 6 н/о н/о +36.4 +6.6 16 +34 +34 очень
жарко
1006.0 959.8 +22.0
03 13.12 Ю 3 н/о н/о +38.7 +5.4 13 +36 +36 очень
жарко
1005.1 959.0
04 13.12 С 7 н/о н/о +41.1 +3.4 10 +38 +38 очень
жарко
1004.4 958.3
06 13.12 З 2 н/о н/о +42.5 +3.0 9 +39 +39 очень
жарко
1002.3 956.3
07 13.12 СЗ 3 н/о н/о +44.2 +0.7 7 +41 +41 опасность
перегрева
1001.6 955.6
09 13.12 СЗ 4 н/о н/о +43.4 -2.0 6 +39 +39 очень
жарко
1001.1 955.1
10 13.12 СЗ 4 н/о н/о +42.0 -0.9 7 +38 +38 очень
жарко
1001.5 955.5
12 13.12 ЮЗ 2 н/о н/о +39.4 +2.2 10 +36 +36 очень
жарко
1002.4 956.4
13 13.12 В 2 н/о 9/0
[]
+37.7 +0.9 10 +34 +34 очень
жарко
1002.5 956.5 +45.4
15 13.12 СЗ 5 н/о н/о +35.8 +2.9 13 +31 +31 жарко 1002.9 956.9
16 13.12 СЗ 2 н/о н/о +33.4 -7.0 7 +29 +29 жарко 1002.6 956.6
18 13.12 С 3 н/о н/о +31.0 +2.3 16 +28 +28 жарко 1003.5 957.4
19 13.12 СЗ 4 н/о н/о +29.6 +4.3 20 +28 +28 жарко 1003.3 957.2
21 13.12 СВ 3 н/о н/о +25.8 +2.5 22 +25 +25 комфорт 1004.1 958.0
22 13.12 штиль 0 н/о н/о +26.7 +1.9 20 +25 +25 комфорт 1004.8 958.7
00 14.12 СЗ 3 н/о н/о +34.3 +4.9 16 +32 +32 жарко 1005.3 959.2
01 14.12 С 7 н/о н/о +35.8 +3.1 13 +33 +33 жарко 1004.9 958.8 +25.4
03 14.12 СЗ 6 н/о н/о +39.3 +3.4 11 +36 +36 очень
жарко
1003.7 957.6
04 14.12 СЗ 4 н/о н/о +40.3 +2.8 10 +37 +37 очень
жарко
1002.8 956.8
06 14.12 С 7 н/о н/о +41.5 +0.6 8 +38 +38 очень
жарко
1001.1 955.1
07 14.12 З 8 н/о н/о +43.1 +1.8 8 +40 +40 очень
жарко
1000.1 954.2
09 14.12 З 8 н/о н/о +41.2 -1.4 7 +37 +37 очень
жарко
999.9 954.0
10 14.12 З 9 н/о н/о +40.0 -0.5 8 +36 +36 очень
жарко
1000.3 954.4
12 14.12 З 6 н/о н/о +36.6 -3.0 8 +33 +33 жарко 1001.6 955.6
13 14.12 СЗ 5 н/о н/о +35.1 -1.1 10 +31 +31 жарко 1002.1 956.1 +43.9
15 14.12 З 4 н/о н/о +32.4 +2.5 15 +30 +30 жарко 1002.4 956.4
16 14.12 З 3 н/о н/о +30.8 +3.0 17 +28 +28 жарко 1002.2 956.2
18 14.12 ЮЗ 4 н/о н/о +28.7 +8.9 29 +28 +28 жарко 1002.0 956.0
19 14.12 ЮЗ 3 н/о н/о +27.3 +10.1 34 +28 +28 жарко 1002.2 956.2
21 14.12 З 4 н/о н/о +25.4 +9.3 36 +26 +26 жарко 1003.3 957.2
22 14.12 З 4 н/о н/о +26.0 +9.8 36 +27 +27 жарко 1003.8 957.7
00 15.12 З 3 н/о н/о +28.0 +10.7 34 +29 +29 жарко 1004.2 958.1
01 15.12 З 4 н/о н/о +30.4 +9.8 28 +30 +30 жарко 1004.2 958.1 +25.0
03 15.12 З 6 н/о н/о +35.1 +6.4 17 +33 +33 жарко 1002.4 956.4
04 15.12 З 6 н/о н/о +36.1 +3.3 13 +33 +33 жарко 1001.7 955.7
06 15.12 З 7 н/о н/о +37.8 +1.0 10 +34 +34 очень
жарко
1000.1 954.2
07 15.12 З 4 н/о н/о +37.9 +1.0 10 +34 +34 очень
жарко
999.5 953.6
09 15.12 З 8 н/о н/о +38.0 +2.5 11 +35 +35 очень
жарко
999.1 953.2
10 15.12 З 8 н/о н/о +36.3 +4.6 14 +33 +33 жарко 999.6 953.7
12 15.12 ЮЗ 6 н/о н/о +32.9 +7.7 21 +31 +31 жарко 1001.1 955.1
13 15.12 З 7 н/о н/о +31.8 +8.7 24 +31 +31 жарко 1001.9 955.9 +39.3
15 15.12 ЮЗ 4 н/о н/о +28.9 +9.6 30 +29 +29 жарко 1002.0 956.0
16 15.12 ЮЗ 4 н/о н/о +28.0 +9.3 31 +28 +28 жарко 1001.8 955.8
18 15.12 З 4 н/о н/о +25.9 +9.3 35 +26 +26 жарко 1001.7 955.7
19 15.12 З 5 н/о н/о +25.0 +9.3 37 +26 +26 жарко 1001.9 955.9
21 15.12 З 6 н/о н/о +23.0 +8.7 40 +24 +24 комфорт 1003.5 957.4
22 15.12 З 5 н/о н/о +22.4 +9.9 45 +24 +24 комфорт 1004.5 958.4
00 16.12 З 6 н/о н/о +23.1 +12.1 50 +26 +26 жарко 1005.9 959.7
01 16.12 З 6 н/о н/о +24.5 +11.8 45 +26 +26 жарко 1005.6 959.4 +21.8
03 16.12 З 6 н/о н/о +27.3 +8.7 31 +27 +27 жарко 1004.5 958.4
04 16.12 З 6 н/о н/о +29.5 +8.0 26 +29 +29 жарко 1003.9 957.8
06 16.12 З 9 н/о н/о +31.3 +0.6 14 +28 +28 жарко 1002.5 956.5
07 16.12 З 8 н/о н/о +32.2 +1.3 14 +29 +29 жарко 1001.9 955.9
09 16.12 З 8 н/о н/о +31.6 +3.6 17 +29 +29 жарко 1001.6 955.6
10 16.12 З 7 н/о н/о +30.2 +5.5 21 +29 +29 жарко 1002.0 956.0
12 16.12 ЮЗ 7 н/о н/о +27.4 +6.8 27 +27 +27 жарко 1003.4 957.3
13 16.12 ЮЗ 7 н/о н/о +26.6 +6.1 27 +26 +26 жарко 1004.0 957.9 +33.4
15 16.12 ЮЗ 8 н/о н/о +24.1 +5.9 31 +24 +24 комфорт 1004.7 958.6
16 16.12 З 8 н/о н/о +22.7 +5.6 33 +23 +23 комфорт 1004.9 958.8
18 16.12 З 6 н/о н/о +20.6 +5.0 36 +21 +21 комфорт 1005.0 958.9
19 16.12 ЮЗ 6 н/о н/о +19.6 +7.7 46 +20 +20 1005.2 959.1
21 16.12 ЮЗ 6 н/о н/о +18.5 +10.3 59 +18 +18 1006.0 959.8
22 16.12 ЮЗ 5 н/о н/о +18.6 +10.7 60 +19 +19 1006.9 960.7
00 17.12 ЮЗ 5 н/о н/о +20.5 +10.9 54 +22 +22 комфорт 1007.8 961.5
01 17.12 ЮЗ 5 н/о 1/1 1000 м
[]
+21.8 +10.6 49 +24 +30 комфорт 1007.9 961.6 +18.3
03 17.12 ЮЗ 7 н/о н/о +26.8 +10.1 35 +27 +27 жарко 1007.2 961.0
04 17.12 ЮЗ 7 н/о 1/1 1500 м
[]
+27.6 +9.0 31 +28 +33 жарко 1006.5 960.3
06 17.12 ЮЗ 7 н/о н/о +29.7 +8.2 26 +29 +29 жарко 1004.8 958.7

 

Местоположение метеостанции Paraburdoo Aero (Западная Австралия, Австралия): широта -23.17 долгота 117.75 высота над уровнем моря 424 м.

В архиве по умолчанию представлена погода в Paraburdoo Aero за последнюю неделю. Архивные данные за месяц целиком и за предыдущие месяцы, начиная с января 2011 года, Вы можете получить, выбрав интересующий диапазон дат из раскрывающегося списка и нажав кнопку "Ввод!".


*Определитесь, кто Вы:
робот инопланетянин человек

Внимание! Время в таблицах - всемирное. Для получения местного времени необходимо прибавить поправку, которая в Paraburdoo Aero равна 8 ч.

Смотрите также архив погоды в соседних городах и на ближайших метеорологических станциях:

Погода в Newman Aero (Западная Австралия, Австралия) (211 км)
Погода в Roebourne Aero (Западная Австралия, Австралия) (276 км)
Погода в Mardie (Западная Австралия, Австралия) (287 км)
Погода в Karratha Aero (Западная Австралия, Австралия) (291 км)
Погода в Marble Bar (Западная Австралия, Австралия) (302 км)
Погода в Onslow Airport (Западная Австралия, Австралия) (318 км)
Погода в Port Hedland Apardoo (Западная Австралия, Австралия) (325 км)
Погода в Thevenard Island (Западная Австралия, Австралия) (340 км)
Погода в Barrow Island Airport (Западная Австралия, Австралия) (352 км)
Погода в Varanus Island (Западная Австралия, Австралия) (359 км)

Пояснения к столбцам:

Ветер - указаны скорость ветра в м/с - средняя за 10 мин, порывы в срок и между сроками (в фигурных скобках) и направление, откуда дует ветер: С - северный, СВ - северо-восточный, В - восточный, ЮВ - юго-восточный, Ю - южный, ЮЗ - юго-западный, З - западный, СЗ - северо-западный.
Видимость - горизонтальная дальность видимости в метрах или километрах. При видимости от 1 до 10 км при отсутствии осадков обычно наблюдается дымка, при ухудшении видимости до 1 км и менее - туман. В сухую погоду видимость может ухудшаться дымом, пылью или мглою.
Явления - указаны атмосферные явления, наблюдавшиеся в срок или в последний час перед сроком; фигурными скобками обозначены явления, наблюдавшиеся между сроками (за 1-3 часа до срока); квадратными скобками обозначены град или гололедные отложения с указанием их диаметра в мм.
Облачность - указаны через наклонную черту общая и нижняя облачность в баллах и высота нижней границы облаков в метрах; квадратными скобками обозначены формы облаков: Ci - перистые, Cs - перисто-слоистые, Cc - перисто-кучевые, Ac - высококучевые, As - высокослоистые, Sc - слоисто-кучевые, Ns - слоисто-дождевые, Cu - кучевые, Cb - кучево-дождевые. Подробнее классификацию облаков см. в Атласе облаков (PDF).
T - Температура воздуха - температура, измеренная на высоте 2 м над землей.
Td - Температура точки росы - температура, при понижении до которой содержащийся в воздухе водяной пар достигнет насыщения.
f - Относительная влажность воздуха - влажноcть воздуха, измеренная на высоте 2 м над землей.
Te - Эффективная температура - температура, которую ощущает одетый по сезону человек в тени. Характеристика душности погоды. При расчете учитывается влияние влажности воздуха и скорости ветра на теплоощущения человека.
Tes - Эффективная температура на солнце - температура, которую ощущает человек, с поправкой на солнечный нагрев. Характеристика знойности погоды. Зависит от высоты солнца над горизонтом, облачности и скорости ветра. Ночью, в пасмурную погоду, а также при ветре 12 м/с и более поправка равна нулю.
P - Атмосферное давление - приведенное к уровню моря атмосферное давление.
Po - Атмосферное давление - измеренное на уровне метеостанции атмосферное давление.
Tmin - Минимальная температура - минимум температуры воздуха на высоте 2 м над землей.
Tmax - Максимальная температура - максимум температуры воздуха на высоте 2 м над землей.
R - Количество осадков - Количество выпавших осадков за период времени, мм. При наведении курсора мыши на число - период времени, за который выпало указанное количество осадков.
R24 - Количество осадков - Количество выпавших осадков за 24 часа, мм.
S - Снежный покров - Высота снежного покрова, см. При наведении курсора мыши на число - состояние снежного покрова и степень покрытия местности в баллах.